CW9790 Weather Reports


Display with metric or nautical units.
time (UTC)temp
F
wind
direction
speed
MPH
gust
MPH
rain 1hr
in
rain 24hr
in
rain mn
in
humidity
%
barometer
mb
20260906222016 85 135 1.0 6.0 0.00 0.00 0.00 62 1011.4
20260906221037 84 135 1.0 6.0 0.00 0.00 0.00 64 1011.4
20260906220016 85 158 1.0 6.0 0.00 0.00 0.00 64 1011.5
20260906215016 84 135 1.0 4.0 0.00 0.00 0.00 65 1011.4
20260906214016 84 135 1.0 4.0 0.00 0.00 0.00 66 1011.6
20260906213017 84 135 1.0 4.0 0.00 0.00 0.00 67 1011.7
20260906212016 84 135 1.0 5.0 0.00 0.00 0.00 67 1011.8
20260906211016 84 90 2.0 5.0 0.00 0.00 0.00 67 1011.8
20260906210038 84 90 2.0 5.0 0.00 0.00 0.00 66 1011.8
20260906205018 85 68 3.0 6.0 0.00 0.00 0.00 65 1011.9
20260906204018 86 68 3.0 7.0 0.00 0.00 0.00 63 1012.0
20260906203036 86 45 2.0 5.0 0.00 0.00 0.00 63 1012.1
20260906202018 86 45 2.0 5.0 0.00 0.00 0.00 62 1012.0
20260906201018 86 23 2.0 6.0 0.00 0.00 0.00 62 1012.0
20260906200017 85 45 2.0 5.0 0.00 0.00 0.00 61 1012.0
20260906195038 86 68 3.0 6.0 0.00 0.00 0.00 62 1012.0
20260906194018 86 68 3.0 10.0 0.00 0.00 0.00 61 1012.0
20260906193017 86 45 3.0 6.0 0.00 0.00 0.00 60 1012.0
20260906192019 87 45 3.0 6.0 0.00 0.00 0.00 59 1012.3
20260906191018 88 45 4.0 13.0 0.00 0.00 0.00 57 1012.5
20260906190019 88 68 4.0 9.0 0.00 0.00 0.00 57 1012.6
20260906185018 89 23 4.0 10.0 0.00 0.00 0.00 57 1012.6
20260906184017 91 23 3.0 7.0 0.00 0.00 0.00 51 1012.7
20260906183017 92 0 3.0 6.0 0.00 0.00 0.00 51 1013.0
20260906182018 94 0 2.0 8.0 0.00 0.00 0.00 47 1013.3
20260906181017 95 135 2.0 7.0 0.00 0.00 0.00 42 1013.4
20260906180039 97 135 2.0 6.0 0.00 0.00 0.00 40 1013.7
20260906175017 97 135 2.0 6.0 0.00 0.00 0.00 41 1013.9
20260906174017 96 45 2.0 5.0 0.00 0.00 0.00 44 1013.9
20260906173017 95 90 2.0 5.0 0.00 0.00 0.00 45 1014.1
20260906172017 93 135 2.0 5.0 0.00 0.00 0.00 49 1014.1
20260906171017 91 203 2.0 5.0 0.00 0.00 0.00 53 1014.1
20260906170017 90 158 2.0 6.0 0.00 0.00 0.00 52 1014.1
20260906165017 91 225 2.0 6.0 0.00 0.00 0.00 54 1014.1
20260906164017 90 225 2.0 5.0 0.00 0.00 0.00 58 1014.2
20260906163017 89 248 2.0 6.0 0.00 0.00 0.00 57 1014.2
20260906162017 88 135 2.0 7.0 0.00 0.00 0.00 59 1014.0
20260906161018 89 135 3.0 6.0 0.00 0.00 0.00 59 1014.0
20260906160018 88 225 2.0 5.0 0.00 0.00 0.00 58 1013.9
20260906155017 87 203 2.0 5.0 0.00 0.00 0.00 63 1014.0
20260906154018 86 225 2.0 5.0 0.00 0.00 0.00 64 1013.9
20260906153017 85 225 2.0 6.0 0.00 0.00 0.00 67 1013.6
20260906152017 84 225 2.0 9.0 0.00 0.00 0.00 68 1013.5
20260906151018 83 135 1.0 6.0 0.00 0.00 0.00 71 1013.5
20260906150017 82 225 2.0 5.0 0.00 0.00 0.00 73 1013.5
20260906145018 81 180 2.0 5.0 0.00 0.00 0.00 74 1013.5
20260906144017 80 203 2.0 5.0 0.00 0.00 0.00 75 1013.3
20260906143017 79 180 2.0 7.0 0.00 0.00 0.00 78 1013.4
20260906142016 78 135 2.0 6.0 0.00 0.00 0.00 79 1013.3
20260906141038 77 135 1.0 5.0 0.00 0.00 0.00 82 1013.5
20260906140017 76 158 1.0 4.0 0.00 0.00 0.00 83 1013.1
20260906135016 75 158 1.0 4.0 0.00 0.00 0.00 85 1013.1
20260906134017 75 158 1.0 4.0 0.00 0.00 0.00 86 1012.9
20260906133016 74 135 1.0 3.0 0.00 0.00 0.00 87 1012.8
20260906132038 73 0.0 0.0 0.00 0.00 0.00 88 1012.6
20260906131017 73 0.0 0.0 0.00 0.00 0.00 88 1012.6
20260906130017 72 0.0 0.0 0.00 0.00 0.00 87 1012.4
20260906125016 72 0.0 0.0 0.00 0.00 0.00 87 1012.2
20260906124016 72 0.0 0.0 0.00 0.00 0.00 86 1012.2
20260906123037 72 0.0 0.0 0.00 0.00 0.00 86 1012.1
20260906122017 72 0.0 0.0 0.00 0.00 0.00 85 1011.9
20260906121016 72 0.0 0.0 0.00 0.00 0.00 85 1012.0
20260906120017 72 0.0 0.0 0.00 0.00 0.00 85 1012.0
20260906115016 73 0.0 0.0 0.00 0.00 0.00 85 1011.9
20260906114016 73 0.0 0.0 0.00 0.00 0.00 85 1011.7
20260906113017 73 0.0 0.0 0.00 0.00 0.00 85 1011.6
20260906112016 73 0.0 0.0 0.00 0.00 0.00 85 1011.4
20260906111016 73 0.0 0.0 0.00 0.00 0.00 85 1011.7
20260906110016 73 0.0 0.0 0.00 0.00 0.00 85 1011.5
20260906105016 73 0.0 0.0 0.00 0.00 0.00 85 1011.4
20260906104017 73 0.0 0.0 0.00 0.00 0.00 85 1011.6
20260906103016 73 0.0 0.0 0.00 0.00 0.00 84 1011.5
20260906102036 73 0.0 0.0 0.00 0.00 0.00 84 1011.5
20260906101017 73 0.0 0.0 0.00 0.00 0.00 84 1011.1
20260906100036 73 0.0 0.0 0.00 0.00 0.00 83 1011.2
20260906095016 73 0.0 0.0 0.00 0.00 0.00 83 1011.3
20260906094016 73 0.0 0.0 0.00 0.00 0.00 82 1011.4
20260906093036 74 0.0 0.0 0.00 0.00 0.00 81 1011.5
20260906092016 74 0.0 0.0 0.00 0.00 0.00 80 1011.7
20260906091036 74 0.0 0.0 0.00 0.00 0.00 80 1011.9
20260906090018 74 0.0 0.0 0.00 0.00 0.00 79 1012.0
20260906085019 75 0.0 0.0 0.00 0.00 0.00 79 1012.1
20260906084018 75 0.0 0.0 0.00 0.00 0.00 78 1011.9
20260906083018 75 0.0 0.0 0.00 0.00 0.00 78 1012.0
20260906082018 76 0.0 2.0 0.00 0.00 0.00 77 1012.1
20260906081018 76 158 1.0 4.0 0.00 0.00 0.00 77 1012.1
20260906080100 76 0.0 3.0 0.00 0.00 0.00 76 1012.1
20260906075017 77 0.0 3.0 0.00 0.00 0.00 76 1012.3
20260906074018 77 135 1.0 4.0 0.00 0.00 0.00 76 1012.5
20260906073018 77 135 1.0 5.0 0.00 0.00 0.00 76 1012.8
20260906072120 77 180 2.0 6.0 0.00 0.00 0.00 76 1012.9
20260906071045 77 113 1.0 5.0 0.00 0.00 0.00 76 1012.8
20260906070017 78 0.0 1.0 0.00 0.00 0.00 75 1012.9
20260906065018 78 0.0 2.0 0.00 0.00 0.00 75 1012.9
20260906064017 78 0.0 2.0 0.00 0.00 0.00 74 1012.9
20260906063018 78 135 1.0 5.0 0.00 0.00 0.00 74 1012.9
20260906062018 79 135 1.0 5.0 0.00 0.00 0.00 74 1012.9
20260906061038 79 135 1.0 5.0 0.00 0.00 0.00 73 1013.2
20260906060017 79 0.0 4.0 0.00 0.00 0.00 73 1013.2
20260906055018 79 158 1.0 6.0 0.00 0.00 0.00 72 1013.2
20260906054017 79 135 1.0 5.0 0.00 0.00 0.00 72 1013.2
20260906053018 79 0.0 2.0 0.00 0.00 0.00 70 1013.0
20260906052017 80 158 1.0 6.0 0.00 0.00 0.00 69 1013.1
20260906051017 80 135 1.0 4.0 0.00 0.00 0.00 68 1012.9
20260906050019 80 0.0 6.0 0.00 0.00 0.00 66 1012.9
20260906045017 81 135 1.0 5.0 0.00 0.00 0.00 65 1013.1
20260906044017 81 135 2.0 5.0 0.00 0.00 0.00 64 1012.9
20260906043017 80 158 1.0 5.0 0.00 0.00 0.00 64 1012.8
20260906042016 79 225 1.0 11.0 0.00 0.00 0.00 65 1012.4
20260906041017 79 0.0 0.0 0.00 0.00 0.00 65 1012.1
20260906040016 79 0.0 0.0 0.00 0.00 0.00 65 1012.1
20260906035016 79 0.0 0.0 0.00 0.00 0.00 64 1012.1
20260906034016 79 0.0 0.0 0.00 0.00 0.00 63 1011.8
20260906033016 79 0.0 0.0 0.00 0.00 0.00 63 1011.8
20260906032017 80 0.0 0.0 0.00 0.00 0.00 62 1011.6
20260906031017 80 0.0 0.0 0.00 0.00 0.00 62 1011.4
20260906030016 80 0.0 0.0 0.00 0.00 0.00 62 1011.3
20260906025017 81 0.0 0.0 0.00 0.00 0.00 61 1011.0
20260906024016 81 0.0 0.0 0.00 0.00 0.00 60 1010.7
20260906023016 82 0.0 0.0 0.00 0.00 0.00 60 1010.7
20260906022017 82 0.0 0.0 0.00 0.00 0.00 59 1010.5
20260906021016 83 0.0 0.0 0.00 0.00 0.00 58 1010.4
20260906020016 83 0.0 0.0 0.00 0.00 0.00 57 1010.2
20260906015016 84 0.0 0.0 0.00 0.00 0.00 57 1010.2
20260906014016 85 0.0 0.0 0.00 0.00 0.00 55 1010.0
20260906013016 86 0.0 0.0 0.00 0.00 0.00 55 1009.9
20260906012016 86 0.0 0.0 0.00 0.00 0.00 54 1010.0
20260906011016 87 0.0 0.0 0.00 0.00 0.00 53 1009.9
20260906010016 87 0.0 4.0 0.00 0.00 0.00 52 1009.8
20260906005018 88 0.0 4.0 0.00 0.00 0.00 52 1009.9
20260906004016 89 0.0 2.0 0.00 0.00 0.00 51 1010.1
20260906003016 90 158 1.0 4.0 0.00 0.00 0.00 50 1010.0
20260906002017 91 135 1.0 4.0 0.00 0.00 0.00 49 1009.9
20260906001016 92 90 1.0 5.0 0.00 0.00 0.00 47 1009.9
20260906000017 93 113 2.0 6.0 0.00 0.00 0.00 46 1010.0
20260905235017 94 113 2.0 10.0 0.00 0.00 0.00 45 1009.9
20260905234019 94 135 1.0 4.0 0.00 0.00 0.00 45 1009.8
20260905233018 93 135 2.0 7.0 0.00 0.00 0.00 46 1009.9
20260905232018 93 135 3.0 7.0 0.00 0.00 0.00 47 1009.9
20260905231018 92 135 2.0 9.0 0.00 0.00 0.00 48 1009.8
20260905230017 92 158 1.0 5.0 0.00 0.00 0.00 48 1009.9
20260905225017 93 158 2.0 9.0 0.00 0.00 0.00 46 1009.9
20260905224018 94 135 2.0 9.0 0.00 0.00 0.00 45 1010.1
20260905223018 95 135 3.0 7.0 0.00 0.00 0.00 43 1010.0